This is the latest recevied weather packets stored in our database for station/object N9ALD. If no packets are shown the sender has not sent any weather packets the latest 10 day(s).
| Time | Temp. | Humidity | Pressure | Rain* | Wind** | Luminosity | Snow |
|---|---|---|---|---|---|---|---|
| 1777243574 | 22.78° C | 45% | 1011.6 hPa | 0 mm | - | 160 W/m² | - |
| 1777243269 | 22.78° C | 45% | 1011.5 hPa | 0 mm | - | 176 W/m² | - |
| 1777242965 | 22.22° C | 48% | 1011.2 hPa | 0 mm | - | 192 W/m² | - |
| 1777242663 | 22.22° C | 49% | 1011.3 hPa | 0 mm | - | 206 W/m² | - |
| 1777242358 | 22.22° C | 46% | 1011.3 hPa | 0 mm | - | 222 W/m² | - |
| 1777242055 | 22.22° C | 47% | 1011.5 hPa | 0 mm | - | 236 W/m² | - |
| 1777241753 | 22.22° C | 47% | 1011.6 hPa | 0 mm | - | 252 W/m² | - |
| 1777241450 | 21.67° C | 48% | 1011.5 hPa | 0 mm | - | 265 W/m² | - |
| 1777241147 | 21.67° C | 50% | 1011.4 hPa | 0 mm | - | 280 W/m² | - |
| 1777240845 | 21.11° C | 48% | 1011.6 hPa | 0 mm | - | 292 W/m² | - |
| 1777240543 | 21.11° C | 49% | 1011.9 hPa | 0 mm | - | 307 W/m² | - |
| 1777240240 | 21.11° C | 47% | 1011.6 hPa | 0 mm | - | 324 W/m² | - |
| 1777239938 | 21.11° C | 50% | 1011.7 hPa | 0 mm | - | 339 W/m² | - |
| 1777239635 | 21.11° C | 48% | 1011.8 hPa | 0 mm | - | 365 W/m² | - |
| 1777239331 | 21.67° C | 49% | 1011.7 hPa | 0 mm | - | 392 W/m² | - |
| 1777239028 | 21.67° C | 51% | 1011.8 hPa | 0 mm | - | 430 W/m² | - |
| 1777238726 | 21.67° C | 52% | 1011.8 hPa | 0 mm | - | 451 W/m² | - |
| 1777238422 | 21.67° C | 51% | 1011.7 hPa | 0 mm | - | 458 W/m² | - |
| 1777238119 | 21.67° C | 51% | 1011.9 hPa | 0 mm | - | 385 W/m² | - |
| 1777237816 | 21.67° C | 52% | 1011.8 hPa | 0 mm | - | 503 W/m² | - |
| 1777237512 | 22.22° C | 49% | 1012.1 hPa | 0 mm | - | 472 W/m² | - |
| 1777237210 | 23.33° C | 48% | 1012 hPa | 0 mm | - | 383 W/m² | - |
| 1777236907 | 23.33° C | 51% | 1011.8 hPa | 0 mm | - | 438 W/m² | - |
| 1777236604 | 22.78° C | 50% | 1012 hPa | 0 mm | - | 415 W/m² | - |
| 1777236298 | 22.78° C | 50% | 1012.2 hPa | 0 mm | - | 486 W/m² | - |
* Rain latest hour (hover to see other rain measurements)
** Current wind speed in m/s (hover to see current wind gust speed)